Preview of NWS' New Version of Forecast
This preview is not operational and should not be used for support decisions.

Regional Weather Roundup (RWR)

Issued by National Weather Service (NWS)

                            
000
ASUS46 KPQR 160510
RWROR 

OREGON REGIONAL WEATHER ROUNDUP
NATIONAL WEATHER SERVICE PORTLAND OR
900 PM PST FRI FEB 15 2019

NOTE: "FAIR" INDICATES FEW OR NO CLOUDS BELOW 12,000 FEET WITH
NO SIGNIFICANT WEATHER AND/OR OBSTRUCTIONS TO VISIBILITY.

ORZ001>013-160600-
NORTHWEST OREGON

  
CITY           SKY/WX    TMP DP  RH WIND       PRES   REMARKS
ASTORIA        CLOUDY    41  39  93 SE5       29.66R                  
TILLAMOOK      LGT RAIN  41  39  93 CALM      29.67S                  
NEWPORT        RAIN      37  37 100 S7        29.71R                  
PORTLAND       LGT RAIN  40  38  93 SE9       29.71R                  
VANCOUVER WA   LGT RAIN  40  37  89 SE8       29.70R                  
SCAPPOOSE      LGT RAIN  43  39  86 CALM      29.69R                  
HILLSBORO      LGT RAIN  41  38  89 S9        29.68R                  
AURORA         CLOUDY    42  38  85 S7        29.70R                  
MCMINNVILLE    LGT RAIN  42  36  79 S12       29.68R                  
SALEM          LGT RAIN  42  36  79 S17G26    29.68S                  
CORVALLIS      CLOUDY    39  38  96 S8        29.72R                  
EUGENE         CLOUDY    40  35  83 S13       29.72R                  
$$

ORZ021-028-160600-
SOUTHWEST OREGON

  
CITY           SKY/WX    TMP DP  RH WIND       PRES   REMARKS
NORTH BEND     LGT RAIN  40  39  97 SE8       29.77R                  
BROOKINGS      LGT RAIN  43  39  86 VRB3      29.82R                  
ROSEBURG       LGT RAIN  39  36  89 CALM      29.76R                  
SEXTON SUMMIT  SNOW      28  27  96 S13G23    29.67R VSB 1/4 WCI  17  
GRANTS PASS    CLOUDY    32  32 100 CALM      29.81  FOG              
MEDFORD        CLOUDY    37  33  85 S8        29.78S                  
$$

ORZ014>016-041-160600-
COLUMBIA GORGE

  
CITY           SKY/WX    TMP DP  RH WIND       PRES   REMARKS
TROUTDALE      LGT RAIN  38  35  89 E14       29.71R WCI  30          
HOOD RIVER     LGT SNOW  32  32 100 CALM      29.73F                  
THE DALLES     CLOUDY    30  26  85 NE5       29.76R                  
$$

ORZ029>031-041-044-049-050-061>064-502-503-505>511-160600-
EASTERN OREGON

  
CITY           SKY/WX    TMP DP  RH WIND       PRES   REMARKS
MADRAS         NOT AVBL                                               
REDMOND        MOCLDY    35  20  54 SE6       29.64S                  
BEND           MOCLDY    36  18  48 S8G16     29.63S                  
PRINEVILLE     CLOUDY    32  21  64 S5        29.65S                  
KLAMATH FALLS  CLOUDY    32  22  66 S15       29.72R WCI  22          
LAKEVIEW       MOCLDY    26  21  81 S14       29.76S WCI  14          
HERMISTON      FOG       24  22  91 CALM      29.74S VSB 1/4          
PENDLETON      PTCLDY    29  25  85 SE7       29.70S                  
JOHN DAY       CLOUDY    30  29  94 E5        29.71                   
MEACHAM        PTCLDY    24  20  84 CALM      29.67S                  
LA GRANDE      PTCLDY    25  21  86 N3        29.73S FOG              
BAKER CITY     MOCLDY    28  26  92 NW5       29.71S                  
BURNS          MOCLDY    27  22  81 CALM      29.72R                  
ROME             N/A     30  17  58 S15       29.74R WCI  19          
ONTARIO        PTCLDY    35  27  72 SW3       29.78R                  
$$